ニート-パンスターズ彗星

488P/NEAT-PanSTARRS (2002)

English version
Home page
Updated on September 26, 2024

---------------------------------------------------------------------

・ プロフィール

符号 488P/2002 QU151
発見日 2024年8月18日
発見光度 19.0等
発見者 Reinder J. Bouma (NEAT survey)

・ 軌道要素

                    Epoch = 2002 Sept. 3.0 TT
     T = 2002 Sept. 3.92009 TT        Peri. =   1.25292
     e = 0.5471001                    Node  = 324.16139 2000.0
     q = 1.6985286 AU                 Incl. =  11.34129
       a =  3.7503402 AU   n = 0.13570570   P =   7.26 years

・ 光度変化

        m1 = 17.3 + 5 logΔ + 10.0 log r

---------------------------------------------------------------------

軌道要素は、CBET 5427に掲載されたものです。
光度グラフはComet for Windowsで作成したものです。

---------------------------------------------------------------------

Copyright(C) Seiichi Yoshida (comet@aerith.net). All rights reserved.